Home   Weather   Tomball   Past weeks
Flag for USA

Past Weather in Tomball, Texas, USA — Yesterday and Last 2 Weeks

Now
67 °F

Light rain. Scattered clouds.


Feels Like: 67 °F
Forecast: 89 / 78 °F
Wind: 10 mph from East

Location: Hooks Memorial Airport

Current Time: Jun 24, 2019 at 8:38:56 am

Latest Report: Jun 24, 2019 at 8:10 am


Visibility: 10 mi

Pressure: 29.98 "Hg

Humidity: 93%

Dew Point: 65 °F

Location of TomballLocation

Past Weather in Tomball — Graph

°F

Tomball Temperature Yesterday

Maximum temperature yesterday: 91 °F (at 3:32 pm)
Minimum temperature yesterday: 81 °F (at 6:53 am)
Average temperature yesterday: 85 °F

High & Low Weather Summary for the Past Weeks

 TemperatureHumidityPressure
High96 °F (Jun 9, 3:53 pm)94% (Jun 18, 6:53 am)30.14 "Hg (Jun 18, 6:53 am)
Low66 °F (Jun 16, 10:53 pm)33% (Jun 12, 4:53 pm)29.73 "Hg (Jun 19, 7:53 pm)
Average82 °F71%29.93 "Hg
* Reported Jun 9 6:53 am — Jun 24 6:58 am, Tomball. Weather by CustomWeather, © 2019

Note: Actual official high and low records may vary slightly from our data, if they occured in-between our weather recording intervals... More about our weather records

Advertising

Tomball Weather History for the Previous 24 Hours

Scroll right to see more
 ConditionsComfort  
Time TempWeatherWind HumidityBarometerVisibility
6:58 am
Mon, Jun 24
67 °FLight rain. Mostly cloudy.9 mph93%30.00 "Hg9 mi
6:42 am67 °FThundershowers. Mostly cloudy.8 mph93%30.00 "Hg8 mi
6:36 am67 °FThundershowers. Cloudy.12 mph93%29.99 "Hg7 mi
6:05 am68 °FThunderstorms. Fog.7 mph93%29.96 "Hg4 mi
5:26 am68 °FStrong thunderstorms. Fog.14 mph93%29.93 "Hg1 mi
5:05 am68 °FStrong thunderstorms. Fog.14 mph93%29.92 "Hg1 mi
4:53 am69 °FStrong thunderstorms. Fog.14 mph90%29.92 "Hg1 mi
4:31 am80 °FThunderstorms. Fog.8 mph90%29.87 "Hg4 mi
4:18 am81 °FThunderstorms. Fog.3 mph91%29.86 "Hg3 mi
4:04 am81 °FStrong thunderstorms. Fog.5 mph91%29.86 "Hg1 mi
3:53 am81 °FStrong thunderstorms. Fog.3 mph91%29.85 "Hg2 mi
3:26 am82 °FThunderstorms. Mostly cloudy.3 mph85%29.85 "Hg8 mi
2:53 am83 °FMostly cloudy.6 mph79%29.85 "Hg8 mi
2:11 am83 °FMostly cloudy.5 mph79%29.87 "Hg8 mi
1:53 am83 °FMostly cloudy.7 mph79%29.86 "Hg8 mi
1:26 am83 °FOvercast.7 mph79%29.85 "Hg9 mi
1:14 am83 °FOvercast.8 mph79%29.85 "Hg9 mi
12:53 am84 °FOvercast.6 mph77%29.84 "Hg9 mi
11:53 pm
Sun, Jun 23
84 °FMostly cloudy.9 mph77%29.83 "Hg10 mi
10:53 pm84 °FMostly cloudy.9 mph77%29.83 "Hg10 mi
10:36 pm84 °FOvercast.12 mph77%29.84 "Hg10 mi
9:53 pm85 °FMostly cloudy.10 mph72%29.81 "Hg10 mi
8:53 pm86 °FPassing clouds.8 mph70%29.80 "Hg10 mi
7:53 pm87 °FPassing clouds.9 mph67%29.79 "Hg10 mi
6:53 pm89 °FScattered clouds.10 mph63%29.79 "Hg10 mi
5:53 pm90 °FPassing clouds.13 mph61%29.80 "Hg10 mi
4:53 pm91 °FPassing clouds.17 mph60%29.81 "Hg10 mi
4:00 pm90 °FScattered clouds.17 mph61%29.83 "Hg10 mi
3:32 pm91 °FThundershowers. Scattered clouds.10 mph60%29.84 "Hg10 mi
3:03 pm90 °FScattered clouds.14 mph66%29.84 "Hg10 mi
2:53 pm89 °FThunderstorms. Passing clouds.6 mph72%29.84 "Hg10 mi
2:32 pm85 °FThundershowers. Passing clouds.6 mph80%29.86 "Hg10 mi
2:12 pm84 °FThunderstorms. Broken clouds.6 mph83%29.87 "Hg2 mi
12:53 pm88 °FPassing clouds.7 mph70%29.89 "Hg10 mi
11:53 am89 °FMostly cloudy.14 mph65%29.90 "Hg10 mi
10:53 am87 °FMostly cloudy.8 mph65%29.91 "Hg10 mi
9:53 am86 °FBroken clouds.10 mph67%29.92 "Hg10 mi
8:53 am84 °FBroken clouds.14 mph72%29.93 "Hg10 mi
Weather by CustomWeather, © 2019

See weather overview